Location: Clarion
(42.7316°N, 93.7330°W)
Time: 01:55:18
(UTC+00:00)

USA 234 - Pass Details

Date: 22 April 2026
Orbit: 1102 x 1106 km, 123.0° (Epoch: 4 January)

Event Time Altitude Azimuth Distance (km) Brightness Sun altitude
Rises 02:19:21 0° 49° (NE) 3,926 6.0 -13.4°
Reaches altitude 10° 02:21:51 10° 51° (NE) 2,966 5.3 -13.8°
Maximum altitude 02:28:24 73° 136° (SE) 1,149 3.2 -14.8°
Drops below altitude 10° 02:34:56 10° 222° (SW) 2,956 5.6 -15.8°
Sets 02:37:25 0° 224° (SW) 3,912 6.3 -16.2°
